FW9327 Weather Reports


time (UTC)temp
F
wind
direction
speed
knots
gust
knots
rain 1hr
in
rain 24hr
in
rain mn
in
humidity
%
barometer
mb
20260502231552 55 360 0.0 7.8 0.00 0.00 0.00 41 1015.7
20260502230047 54 360 0.9 3.5 0.00 0.00 0.00 42 1015.7
20260502224550 54 360 0.9 4.3 0.00 0.00 0.00 41 1015.8
20260502223050 55 360 0.9 7.0 0.00 0.00 0.00 42 1015.7
20260502221549 55 360 1.7 7.0 0.00 0.00 0.00 41 1015.9
20260502220053 56 360 1.7 4.3 0.00 0.00 0.00 40 1016.0
20260502214552 58 5 0.9 7.0 0.00 0.00 0.00 39 1016.0
20260502213051 57 9 2.6 7.8 0.00 0.00 0.00 39 1016.0
20260502211554 55 5 0.9 3.5 0.00 0.00 0.00 41 1016.0
20260502210049 54 9 0.0 4.3 0.00 0.00 0.00 42 1016.1
20260502204553 55 5 0.9 7.0 0.00 0.00 0.00 43 1016.5
20260502203053 56 0 0.9 7.8 0.00 0.00 0.00 40 1016.6
20260502201552 57 9 1.7 7.8 0.00 0.00 0.00 40 1016.7
20260502200055 54 0 0.9 5.2 0.00 0.00 0.00 45 1017.1
20260502194548 53 360 0.9 10.4 0.00 0.01 0.00 44 1017.2
20260502193048 54 360 0.9 4.3 0.00 0.01 0.00 42 1017.5
20260502191558 55 360 0.9 4.3 0.00 0.01 0.00 41 1017.4
20260502190052 53 360 0.9 3.5 0.00 0.01 0.00 42 1017.7
20260502184552 54 0 0.0 4.3 0.00 0.01 0.00 41 1017.9
20260502183051 53 360 0.9 4.3 0.00 0.01 0.00 44 1018.2
20260502181552 53 360 0.9 4.3 0.00 0.01 0.00 44 1018.2
20260502163108 51 360 0.0 8.7 0.00 0.01 0.00 45 1018.9
20260502161555 52 360 1.7 7.0 0.00 0.01 0.00 44 1019.0
20260502151557 51 0 0.9 5.2 0.00 0.01 0.00 47 1019.3
20260502150105 50 360 0.9 4.3 0.00 0.01 0.00 47 1019.1
20260502130108 40 0 0.0 1.7 0.00 0.01 0.00 93 1019.0
20260502123100 37 0 0.0 0.0 0.00 0.01 0.00 94 1019.0
20260502121552 35 0 0.0 0.0 0.00 0.01 0.00 94 1018.9
20260502114552 30 0 0.0 0.0 0.00 0.01 0.00 94 1018.6
20260502113053 28 0 0.0 0.0 0.00 0.01 0.00 93 1018.4
20260502111555 28 0 0.0 0.0 0.00 0.01 0.00 93 1018.5
20260502110052 28 0 0.0 0.0 0.00 0.01 0.00 93 1018.3
20260502104549 28 0 0.0 0.0 0.00 0.01 0.00 93 1018.2
20260502103048 28 0 0.0 0.0 0.00 0.01 0.00 93 1018.2
20260502101552 28 0 0.0 0.0 0.00 0.01 0.00 92 1018.2
20260502080106 29 0 0.0 0.0 0.00 0.01 0.00 91 1018.0
20260502070058 29 0 0.0 0.0 0.00 0.01 0.00 90 1018.5
20260502064555 30 0 0.0 0.0 0.00 0.01 0.00 90 1018.6
20260502063104 30 0 0.0 0.0 0.00 0.01 0.00 90 1018.6
20260502061551 30 0 0.0 0.0 0.00 0.01 0.00 89 1018.7
20260502060048 31 0 0.0 0.0 0.00 0.01 0.00 89 1018.8
20260502054551 31 0 0.0 0.0 0.00 0.01 0.00 88 1018.9
20260502053100 32 0 0.0 0.0 0.00 0.01 0.00 88 1018.9
20260502051551 32 0 0.0 0.0 0.00 0.01 0.00 87 1018.8
20260502050054 32 0 0.0 0.0 0.00 0.01 0.00 87 1019.0
20260502044550 33 0 0.0 0.0 0.00 0.01 0.01 85 1019.1
20260502043054 33 0 0.0 0.0 0.00 0.01 0.01 85 1019.0
20260502041553 34 0 0.0 0.0 0.00 0.01 0.01 84 1018.9
20260502040058 35 0 0.0 0.0 0.00 0.01 0.01 83 1018.9
20260502034551 35 0 0.0 0.0 0.00 0.01 0.01 81 1018.8
20260502033058 35 0 0.0 0.0 0.00 0.01 0.01 80 1018.8
20260502031556 36 0 0.0 0.0 0.00 0.01 0.01 79 1018.8
20260502030054 36 0 0.0 0.0 0.00 0.01 0.01 79 1018.7
20260502024604 37 0 0.0 0.0 0.00 0.01 0.01 77 1018.6
20260502023055 37 0 0.0 0.0 0.00 0.01 0.01 76 1018.4
20260502021554 38 0 0.0 2.6 0.00 0.01 0.01 74 1018.3
20260502020055 38 5 0.0 2.6 0.00 0.01 0.01 72 1018.1
20260502014553 39 5 0.0 7.0 0.00 0.01 0.01 72 1018.0
20260502013056 39 5 0.0 3.5 0.00 0.01 0.01 73 1017.7
20260502011550 40 5 0.9 4.3 0.00 0.01 0.01 73 1017.2
20260502010052 41 5 0.9 7.8 0.00 0.01 0.01 73 1017.2
20260502004553 41 5 0.9 7.8 0.00 0.01 0.01 72 1017.1
20260502003050 43 5 0.9 4.3 0.00 0.01 0.01 72 1017.0
20260502001550 43 5 0.0 4.3 0.00 0.01 0.01 72 1016.8
20260502000100 44 0 0.9 3.5 0.00 0.01 0.01 72 1016.6
20260501234556 44 360 0.9 3.5 0.00 0.01 0.01 71 1016.5
20260501233110 45 360 0.9 3.5 0.00 0.01 0.01 72 1016.5